Flag for Canada Weather past 2 weeks in Stonewall, Manitoba, Canada

Now
34 °F

Overcast.


Feels Like: 22 °F
Forecast: 31 / 38 °F
Wind: 23 mph from Northwest

Location: Winnipeg Int. Airportman.

Current Time: Apr 19, 2015 at 8:54:00 PM

Latest Report: Apr 19, 2015 at 8:00 PM


Visibility: 15 mi

Pressure: 29.77 "Hg

Humidity: 87%

Dew point: 30 °F

Location of StonewallLocation

Historic Weather in Stonewall — Graph

°F

Stonewall temperature yesterday

Maximum temperature yesterday: 68 °F (at 6:00 PM)
Minimum temperature yesterday: 32 °F (at 3:00 AM)
Average temperature yesterday: 50 °F

Past Weeks' High & Low Weather Summary

 TemperatureHumidityPressure
High77 °F (Apr 15, 5:00 PM)100% (Apr 9, 8:00 AM)30.37 "Hg (Apr 9, 8:00 AM)
Low9 °F (Apr 5, 7:00 AM)15% (Apr 14, 2:00 PM)29.41 "Hg (Apr 12, 4:00 AM)
Average44 °F51%29.99 "Hg
* Reported Apr 4 8:00 PM — Apr 19 8:00 PM, Stonewall, Weather by CustomWeather, © 2015

Note: Actual official high and low records may vary slightly from our data, if they occured in-between our weather recording intervals... More about our weather records

Advertising

Stonewall weather history for previous 24 hours

 ConditionsComfort  
Time TempWeatherWind HumidityBarometerVisibility
8:00 PM
Sun, Apr 19
34 °FOvercast.23 mph87%29.77 "Hg15 mi
7:00 PM36 °FOvercast.28 mph81%29.76 "Hg15 mi
6:00 PM37 °FOvercast.25 mph81%29.75 "Hg15 mi
5:00 PM37 °FOvercast.26 mph93%29.75 "Hg15 mi
4:00 PM39 °FMore clouds than sun.25 mph87%29.74 "Hg10 mi
3:00 PM41 °FOvercast.24 mph87%29.73 "Hg10 mi
2:00 PM41 °FLight rain. More clouds than sun.24 mph87%29.74 "Hg10 mi
1:00 PM41 °FLight rain. More clouds than sun.26 mph93%29.73 "Hg10 mi
12:00 PM41 °FLight rain. Fog.23 mph93%29.74 "Hg6 mi
11:00 AM43 °FLight rain. Fog.23 mph87%29.72 "Hg6 mi
10:00 AM45 °FLight rain. Fog.13 mph93%29.72 "Hg6 mi
9:00 AM45 °FLight rain. Fog.8 mph93%29.72 "Hg6 mi
8:00 AM45 °FLight rain. Fog.10 mph93%29.75 "Hg6 mi
7:00 AM45 °FLight rain. Fog.10 mph93%29.75 "Hg5 mi
6:00 AM45 °FLight rain. Overcast.10 mph93%29.75 "Hg12 mi
5:00 AM45 °FLight rain. Overcast.10 mph93%29.75 "Hg12 mi
4:00 AM46 °FLight rain. Overcast.13 mph76%29.77 "Hg12 mi
3:00 AM48 °FOvercast.8 mph62%29.78 "Hg15 mi
2:00 AM46 °FPassing clouds.8 mph62%29.78 "Hg15 mi
1:00 AM52 °FPassing clouds.10 mph50%29.79 "Hg15 mi
12:00 AM54 °FPassing clouds.20 mph35%29.81 "Hg15 mi
11:00 PM
Sat, Apr 18
57 °FPartly cloudy.15 mph31%29.81 "Hg15 mi
10:00 PM57 °FPassing clouds.17 mph31%29.83 "Hg15 mi
9:00 PM59 °FBroken clouds.16 mph27%29.86 "Hg15 mi
8:00 PM63 °FBroken clouds.16 mph24%29.87 "Hg15 mi
Weather by CustomWeather, © 2015

See weather overviewHow to use our weather pages